User: anonymous   Login
Location: Oakhurst
(33.6448°N, 111.9543°W)
Time: 06:22:45
(UTC+00:00)
Language:

TIGRISAT - Orbit

View from above orbital plane
View from above orbital plane
View from above satellite
View from above satellite

Ground track
Ground track

The orbit data is extracted from the following two-line orbital elements,

1 40043U 14033AK  21209.10402844  .00000215  00000-0  38520-4 0  9999
2 40043  97.6706  50.7705 0060933 125.8204 234.8688 14.74559201381824
Epoch (UTC): 28 July 2021 02:29:48
Eccentricity: 0.0060933
inclination: 97.6706°
perigee height: 604 km
apogee height: 689 km
right ascension of ascending node: 50.7705°
argument of perigee: 125.8204°
revolutions per day: 14.74559201
mean anomaly at epoch: 234.8688°
orbit number at epoch: 38182

The dashed part of the orbit path shows where the satellite is in the earth's shadow,  

DLR